�������l�o���
Date,Time,MP-1(��Sv/h),MP-2(��Sv/h),MP-3(��Sv/h),MP-4(��Sv/h),MP-5(��Sv/h),MP-6(��Sv/h),MP-7(��Sv/h),����,����(m/s),���J
2022/03/05,00:00,0.160,0.147,0.233,0.225,0.225,0.128,0.081,�쐼,1.1,��
2022/03/05,00:10,0.161,0.147,0.232,0.224,0.225,0.127,0.081,��쐼,1.3,��
2022/03/05,00:20,0.160,0.147,0.233,0.224,0.225,0.126,0.081,��,1.0,��
2022/03/05,00:30,0.160,0.146,0.233,0.223,0.225,0.128,0.081,��,1.4,��
2022/03/05,00:40,0.161,0.146,0.234,0.225,0.225,0.128,0.081,��,1.3,��
2022/03/05,00:50,0.161,0.147,0.233,0.225,0.224,0.127,0.081,��,1.6,��
2022/03/05,01:00,0.161,0.147,0.233,0.225,0.225,0.127,0.080,��,1.0,��
2022/03/05,01:10,0.161,0.148,0.232,0.225,0.226,0.127,0.081,��,0.8,��
2022/03/05,01:20,0.160,0.146,0.233,0.224,0.226,0.127,0.081,��쓌,1.3,��
2022/03/05,01:30,0.160,0.147,0.233,0.226,0.225,0.127,0.081,��쓌,1.1,��
2022/03/05,01:40,0.160,0.147,0.234,0.225,0.225,0.127,0.081,��쓌,1.0,��
2022/03/05,01:50,0.161,0.147,0.233,0.224,0.224,0.126,0.082,��,1.3,��
2022/03/05,02:00,0.159,0.148,0.233,0.224,0.225,0.128,0.081,��쓌,1.3,��
2022/03/05,02:10,0.159,0.147,0.232,0.224,0.225,0.127,0.080,��쓌,1.3,��
2022/03/05,02:20,0.161,0.147,0.233,0.224,0.226,0.128,0.081,��,1.0,��
2022/03/05,02:30,0.161,0.147,0.233,0.225,0.224,0.127,0.081,��,1.6,��
2022/03/05,02:40,0.161,0.147,0.233,0.225,0.226,0.127,0.081,��,1.6,��
2022/03/05,02:50,0.160,0.147,0.233,0.225,0.225,0.128,0.081,��,2.2,��
2022/03/05,03:00,0.161,0.147,0.233,0.224,0.226,0.127,0.081,��,1.9,��
2022/03/05,03:10,0.162,0.146,0.232,0.224,0.224,0.127,0.080,��,2.2,��
2022/03/05,03:20,0.161,0.148,0.232,0.226,0.226,0.127,0.081,��,1.8,��
2022/03/05,03:30,0.160,0.147,0.232,0.225,0.225,0.127,0.081,��쓌,2.4,�L
2022/03/05,03:40,0.161,0.146,0.232,0.225,0.225,0.127,0.081,��쓌,2.4,�L
2022/03/05,03:50,0.161,0.147,0.233,0.224,0.225,0.128,0.082,��쓌,1.8,�L
2022/03/05,04:00,0.160,0.147,0.232,0.224,0.226,0.128,0.081,��,1.9,�L
2022/03/05,04:10,0.161,0.147,0.233,0.225,0.225,0.127,0.081,��쓌,1.9,�L
2022/03/05,04:20,0.161,0.148,0.232,0.225,0.224,0.126,0.081,��쓌,1.8,�L
2022/03/05,04:30,0.161,0.149,0.233,0.224,0.226,0.128,0.081,��쓌,1.3,�L
2022/03/05,04:40,0.161,0.147,0.232,0.225,0.225,0.127,0.081,��쓌,1.0,��
2022/03/05,04:50,0.161,0.148,0.233,0.225,0.226,0.127,0.081,��쓌,1.1,��
2022/03/05,05:00,0.161,0.146,0.232,0.224,0.224,0.127,0.081,��쓌,1.1,��
2022/03/05,05:10,0.161,0.149,0.233,0.225,0.226,0.127,0.082,��쓌,1.6,��
2022/03/05,05:20,0.161,0.148,0.232,0.224,0.225,0.128,0.082,��,1.0,��
2022/03/05,05:30,0.160,0.147,0.234,0.224,0.225,0.128,0.081,��,0.8,��
2022/03/05,05:40,0.162,0.148,0.233,0.225,0.226,0.127,0.081,��,1.0,��
2022/03/05,05:50,0.160,0.148,0.233,0.225,0.225,0.127,0.082,��,0.8,��
2022/03/05,06:00,0.161,0.148,0.233,0.225,0.224,0.128,0.081,��,1.3,��
2022/03/05,06:10,0.160,0.147,0.234,0.226,0.225,0.128,0.081,��,1.9,��
2022/03/05,06:20,0.161,0.148,0.233,0.225,0.226,0.128,0.081,��,1.6,�L
2022/03/05,06:30,0.160,0.146,0.233,0.224,0.225,0.127,0.081,��,1.9,�L
2022/03/05,06:40,0.161,0.147,0.233,0.225,0.226,0.127,0.081,��쐼,1.6,�L
2022/03/05,06:50,0.162,0.147,0.232,0.225,0.226,0.127,0.081,�쐼,2.2,��
2022/03/05,07:00,0.161,0.148,0.232,0.225,0.225,0.127,0.080,��쐼,2.4,�L
2022/03/05,07:10,0.161,0.146,0.234,0.224,0.225,0.127,0.082,��쐼,2.2,��
2022/03/05,07:20,0.161,0.147,0.234,0.224,0.224,0.128,0.082,�쐼,2.2,��
2022/03/05,07:30,0.161,0.148,0.234,0.225,0.224,0.128,0.081,��쐼,1.8,��
2022/03/05,07:40,0.161,0.148,0.232,0.225,0.225,0.128,0.081,��,2.2,��
2022/03/05,07:50,0.161,0.148,0.232,0.224,0.225,0.127,0.081,��쐼,2.7,��
2022/03/05,08:00,0.161,0.147,0.234,0.225,0.226,0.127,0.081,��쓌,1.9,��
2022/03/05,08:10,0.160,0.147,0.233,0.225,0.225,0.127,0.081,��쓌,1.9,��
2022/03/05,08:20,0.162,0.147,0.232,0.224,0.225,0.127,0.081,��쓌,2.1,��
2022/03/05,08:30,0.161,0.147,0.232,0.225,0.225,0.127,0.081,��,2.4,��
2022/03/05,08:40,0.161,0.146,0.233,0.224,0.225,0.127,0.081,��쓌,2.7,��
2022/03/05,08:50,0.161,0.148,0.232,0.225,0.225,0.128,0.080,��쓌,3.2,��
2022/03/05,09:00,0.161,0.148,0.231,0.224,0.226,0.127,0.080,�쓌,3.8,��
2022/03/05,09:10,0.161,0.147,0.233,0.223,0.226,0.127,0.081,��쓌,3.3,��
2022/03/05,09:20,0.161,0.146,0.232,0.223,0.225,0.127,0.081,��쓌,4.1,��
2022/03/05,09:30,0.159,0.146,0.231,0.223,0.225,0.126,0.080,��쓌,5.2,��
2022/03/05,09:40,0.160,0.146,0.233,0.224,0.225,0.126,0.081,��쓌,5.2,��
2022/03/05,09:50,0.160,0.146,0.232,0.224,0.225,0.126,0.081,-,CALM,��
2022/03/05,10:00,0.159,0.147,0.233,0.224,0.224,0.126,0.080,-,CALM,��
2022/03/05,10:10,0.160,0.146,0.233,0.225,0.225,0.126,0.080,-,CALM,��
2022/03/05,10:20,0.161,0.146,0.231,0.223,0.224,0.127,0.080,-,CALM,��
2022/03/05,10:30,0.159,0.147,0.231,0.226,0.226,0.127,0.081,-,CALM,��
2022/03/05,10:40,0.161,0.146,0.232,0.224,0.225,0.126,0.081,-,CALM,��
2022/03/05,10:50,0.159,0.146,0.232,0.225,0.225,0.127,0.081,-,CALM,��
2022/03/05,11:00,0.160,0.146,0.231,0.224,0.226,0.126,0.081,-,CALM,��
2022/03/05,11:10,0.158,0.147,0.232,0.223,0.225,0.127,0.081,-,CALM,��
2022/03/05,11:20,0.160,0.147,0.231,0.224,0.226,0.126,0.081,-,CALM,��
2022/03/05,11:30,0.159,0.147,0.231,0.222,0.225,0.127,0.080,-,CALM,��
2022/03/05,11:40,0.160,0.147,0.232,0.225,0.226,0.127,0.080,-,CALM,��
2022/03/05,11:50,0.159,0.146,0.231,0.224,0.224,0.126,0.081,-,CALM,��
2022/03/05,12:00,0.160,0.146,0.232,0.225,0.226,0.127,0.081,-,CALM,��
2022/03/05,12:10,0.159,0.147,0.232,0.224,0.223,0.126,0.081,-,CALM,��
2022/03/05,12:20,0.159,0.146,0.232,0.223,0.226,0.127,0.081,-,CALM,��
2022/03/05,12:30,0.160,0.148,0.233,0.224,0.225,0.127,0.080,-,CALM,��
2022/03/05,12:40,0.159,0.147,0.231,0.223,0.225,0.126,0.080,-,CALM,��
2022/03/05,12:50,0.160,0.146,0.233,0.224,0.226,0.127,0.080,-,CALM,��
2022/03/05,13:00,0.159,0.147,0.231,0.223,0.224,0.127,0.080,-,CALM,��
2022/03/05,13:10,0.161,0.146,0.232,0.223,0.224,0.127,0.080,-,CALM,��
2022/03/05,13:20,0.160,0.147,0.231,0.225,0.225,0.126,0.081,-,CALM,��
2022/03/05,13:30,0.161,0.145,0.232,0.223,0.225,0.127,0.079,-,CALM,��
2022/03/05,13:40,0.158,0.146,0.231,0.226,0.225,0.127,0.081,-,CALM,��
2022/03/05,13:50,0.160,0.147,0.233,0.224,0.225,0.126,0.081,-,CALM,��
2022/03/05,14:00,0.160,0.147,0.230,0.225,0.225,0.126,0.080,-,CALM,��
2022/03/05,14:10,0.161,0.147,0.233,0.225,0.225,0.127,0.081,-,CALM,��
2022/03/05,14:20,0.160,0.146,0.231,0.223,0.226,0.127,0.080,-,CALM,��
2022/03/05,14:30,0.160,0.147,0.233,0.226,0.225,0.127,0.081,-,CALM,��
2022/03/05,14:40,0.161,0.146,0.232,0.225,0.226,0.128,0.080,-,CALM,��
2022/03/05,14:50,0.159,0.146,0.233,0.225,0.225,0.127,0.080,-,CALM,��
2022/03/05,15:00,0.161,0.147,0.233,0.225,0.225,0.127,0.080,-,CALM,��
2022/03/05,15:10,0.160,0.147,0.232,0.225,0.226,0.127,0.081,-,CALM,��
2022/03/05,15:20,0.160,0.147,0.233,0.225,0.225,0.127,0.081,-,CALM,��
2022/03/05,15:30,0.160,0.147,0.233,0.225,0.226,0.127,0.080,��쓌,7.4,��
2022/03/05,15:40,0.159,0.147,0.233,0.224,0.225,0.127,0.081,��,7.5,��
2022/03/05,15:50,0.161,0.148,0.233,0.224,0.224,0.126,0.081,��,6.9,��
2022/03/05,16:00,0.160,0.147,0.233,0.226,0.226,0.127,0.080,��,6.5,��
2022/03/05,16:10,0.161,0.147,0.233,0.225,0.225,0.127,0.080,��,6.0,��
2022/03/05,16:20,0.161,0.148,0.233,0.224,0.226,0.127,0.080,��,5.8,��
2022/03/05,16:30,0.160,0.147,0.232,0.224,0.226,0.126,0.080,��,5.4,�L
2022/03/05,16:40,0.160,0.148,0.232,0.225,0.226,0.127,0.081,��쐼,3.8,��
2022/03/05,16:50,0.160,0.147,0.234,0.225,0.227,0.127,0.080,��,3.5,��
2022/03/05,17:00,0.161,0.147,0.232,0.225,0.225,0.127,0.081,���k��,7.5,��
2022/03/05,17:10,0.160,0.148,0.231,0.224,0.227,0.128,0.080,���k��,8.5,��
2022/03/05,17:20,0.159,0.147,0.232,0.224,0.226,0.127,0.081,���k��,10.6,��
2022/03/05,17:30,0.160,0.147,0.233,0.225,0.225,0.127,0.081,���k��,10.3,��
2022/03/05,17:40,0.160,0.147,0.232,0.224,0.226,0.127,0.081,���k��,11.2,��
2022/03/05,17:50,0.160,0.146,0.233,0.225,0.225,0.127,0.080,���k��,13.7,��
2022/03/05,18:00,0.161,0.146,0.233,0.225,0.226,0.127,0.081,��,12.4,�L
2022/03/05,18:10,0.160,0.146,0.231,0.225,0.225,0.127,0.081,��,14.2,�L
2022/03/05,18:20,0.159,0.148,0.233,0.225,0.224,0.128,0.081,��,14.6,��
2022/03/05,18:30,0.161,0.147,0.232,0.225,0.226,0.127,0.081,��,14.0,��
2022/03/05,18:40,0.161,0.147,0.232,0.225,0.227,0.127,0.080,��,11.9,�L
2022/03/05,18:50,0.161,0.147,0.232,0.225,0.226,0.127,0.081,���k��,12.2,�L
2022/03/05,19:00,0.161,0.148,0.234,0.225,0.226,0.128,0.080,���k��,13.4,��
2022/03/05,19:10,0.161,0.147,0.234,0.226,0.226,0.128,0.080,���k��,12.6,��
2022/03/05,19:20,0.161,0.148,0.233,0.225,0.226,0.128,0.081,��,12.5,��
2022/03/05,19:30,0.161,0.148,0.234,0.226,0.225,0.128,0.081,���k��,11.5,��
2022/03/05,19:40,0.162,0.149,0.233,0.226,0.227,0.128,0.081,���k��,11.4,��
2022/03/05,19:50,0.161,0.148,0.234,0.225,0.225,0.128,0.080,���k��,9.0,��
2022/03/05,20:00,0.162,0.148,0.234,0.224,0.225,0.128,0.081,���k��,11.5,��
2022/03/05,20:10,0.162,0.148,0.233,0.225,0.227,0.128,0.080,��,15.9,��
2022/03/05,20:20,0.160,0.148,0.234,0.225,0.226,0.128,0.081,���k��,12.3,��
2022/03/05,20:30,0.160,0.148,0.234,0.226,0.226,0.129,0.081,��,15.4,��
2022/03/05,20:40,0.161,0.146,0.233,0.226,0.226,0.128,0.081,���k��,13.2,��
2022/03/05,20:50,0.161,0.148,0.232,0.225,0.227,0.128,0.081,���k��,14.8,��
2022/03/05,21:00,0.161,0.147,0.234,0.226,0.226,0.128,0.081,���k��,15.1,��
2022/03/05,21:10,0.160,0.147,0.234,0.226,0.226,0.127,0.081,���k��,14.0,��
2022/03/05,21:20,0.162,0.148,0.233,0.225,0.226,0.128,0.081,���k��,16.2,��
2022/03/05,21:30,0.161,0.146,0.233,0.226,0.226,0.128,0.081,��,15.3,��
2022/03/05,21:40,0.160,0.147,0.233,0.225,0.226,0.128,0.081,��,16.5,��
2022/03/05,21:50,0.161,0.146,0.233,0.225,0.225,0.128,0.081,�k��,15.4,��
2022/03/05,22:00,0.160,0.147,0.233,0.225,0.227,0.126,0.081,��,21.7,��
2022/03/05,22:10,0.161,0.148,0.233,0.224,0.226,0.128,0.080,���k��,20.0,��
2022/03/05,22:20,0.162,0.146,0.234,0.227,0.225,0.127,0.080,���k��,15.1,��
2022/03/05,22:30,0.161,0.148,0.233,0.225,0.226,0.128,0.081,��,14.5,��
2022/03/05,22:40,0.160,0.147,0.233,0.225,0.228,0.127,0.080,���k��,14.8,��
2022/03/05,22:50,0.160,0.147,0.234,0.226,0.225,0.127,0.081,��,14.5,��
2022/03/05,23:00,0.161,0.146,0.233,0.225,0.227,0.127,0.081,���k��,17.0,��
2022/03/05,23:10,0.161,0.146,0.233,0.225,0.227,0.127,0.080,��,17.5,��
2022/03/05,23:20,0.161,0.146,0.233,0.225,0.226,0.128,0.081,���k��,19.2,��
2022/03/05,23:30,0.161,0.147,0.233,0.225,0.227,0.128,0.081,���k��,15.9,��
2022/03/05,23:40,0.161,0.147,0.233,0.225,0.226,0.127,0.080,���k��,14.0,��
2022/03/05,23:50,0.161,0.147,0.233,0.225,0.226,0.127,0.081,-,CALM,��
